CW2434 Weather Reports


Display with metric or nautical units.
time (UTC)temp
F
wind
direction
speed
MPH
gust
MPH
rain 1hr
in
rain 24hr
in
rain mn
in
humidity
%
barometer
mb
20260509030051 43 0 1.0 4.0 0.00 0.00 0.00 67 1012.7
20260509024550 43 78 2.0 4.0 0.00 0.00 0.00 67 1012.9
20260509023052 43 78 1.0 3.0 0.00 0.00 0.00 68 1012.8
20260509021549 44 78 2.0 3.0 0.00 0.00 0.00 66 1012.8
20260509020051 43 78 1.0 4.0 0.00 0.00 0.00 66 1012.7
20260509014549 44 65 2.0 4.0 0.00 0.00 0.00 66 1012.4
20260509013050 44 0 0.0 2.0 0.00 0.00 0.00 64 1012.5
20260509011553 45 0 0.0 2.0 0.00 0.00 0.00 65 1012.3
20260509010046 45 65 2.0 4.0 0.00 0.00 0.00 64 1012.0
20260509004552 46 80 2.0 3.0 0.00 0.00 0.00 63 1011.6
20260509003052 48 80 2.0 4.0 0.00 0.00 0.00 64 1011.5
20260509001550 50 94 0.0 3.0 0.00 0.00 0.00 60 1011.3
20260509000103 51 94 1.0 3.0 0.00 0.00 0.00 54 1011.3
20260508234550 53 94 1.0 3.0 0.00 0.00 0.00 50 1011.1
20260508233050 54 0 0.0 2.0 0.00 0.00 0.00 47 1011.0
20260508231556 54 322 2.0 7.0 0.00 0.00 0.00 48 1010.9
20260508230104 54 340 3.0 6.0 0.00 0.00 0.00 46 1010.9
20260508224558 55 296 1.0 8.0 0.00 0.00 0.00 44 1010.8
20260508223101 56 63 0.0 9.0 0.00 0.00 0.00 45 1010.6
20260508221603 58 306 3.0 9.0 0.00 0.00 0.00 39 1010.4
20260508220058 58 307 2.0 6.0 0.00 0.00 0.00 43 1010.7
20260508214610 58 352 2.0 9.0 0.00 0.00 0.00 41 1010.5
20260508213115 58 308 6.0 12.0 0.00 0.00 0.00 43 1010.6
20260508211559 59 249 5.0 13.0 0.00 0.00 0.00 44 1010.7
20260508210055 59 34 6.0 14.0 0.00 0.00 0.00 45 1010.5
20260508204604 58 319 4.0 13.0 0.00 0.00 0.00 43 1010.5
20260508203058 58 267 3.0 11.0 0.00 0.00 0.00 48 1010.3
20260508201607 57 319 6.0 11.0 0.00 0.00 0.00 48 1010.4
20260508200113 56 307 3.0 8.0 0.00 0.00 0.00 50 1010.5
20260508194618 54 284 4.0 12.0 0.00 0.00 0.00 53 1010.7
20260508193057 55 340 5.0 9.0 0.00 0.00 0.00 54 1010.7
20260508191552 54 259 4.0 9.0 0.00 0.00 0.00 56 1010.7
20260508184552 55 257 8.0 19.0 0.00 0.00 0.00 49 1010.8
20260508183052 53 297 4.0 10.0 0.00 0.00 0.00 57 1010.8
20260508181608 53 286 4.0 13.0 0.00 0.00 0.00 57 1010.7
20260508180109 53 352 1.0 8.0 0.00 0.00 0.00 55 1010.7
20260508174603 53 313 4.0 9.0 0.00 0.00 0.00 60 1010.5
20260508173052 52 302 4.0 11.0 0.00 0.00 0.00 59 1010.8
20260508171548 50 284 2.0 9.0 0.00 0.00 0.00 65 1011.1
20260508170057 50 360 3.0 9.0 0.00 0.00 0.00 61 1011.2
20260508164556 51 351 2.0 9.0 0.00 0.00 0.00 59 1011.1
20260508163048 51 281 5.0 14.0 0.00 0.00 0.00 57 1011.2
20260508161551 52 241 6.0 12.0 0.00 0.00 0.00 54 1011.0
20260508160052 53 260 7.0 18.0 0.00 0.00 0.00 51 1011.0
20260508154554 53 246 4.0 10.0 0.00 0.00 0.00 52 1010.6
20260508153050 53 165 3.0 9.0 0.00 0.00 0.00 55 1010.7
20260508151550 53 266 4.0 10.0 0.00 0.00 0.00 54 1010.8
20260508150047 52 183 5.0 9.0 0.00 0.00 0.00 54 1011.0
20260508144551 51 263 7.0 12.0 0.00 0.00 0.00 51 1011.3
20260508143054 52 325 5.0 14.0 0.00 0.00 0.00 56 1011.4
20260508141558 51 205 5.0 10.0 0.00 0.00 0.00 58 1011.3
20260508140056 50 225 2.0 10.0 0.00 0.00 0.00 61 1011.3
20260508134548 49 242 2.0 8.0 0.00 0.00 0.00 64 1011.1
20260508133051 48 211 1.0 9.0 0.00 0.00 0.00 67 1011.3
20260508131557 47 240 1.0 4.0 0.00 0.00 0.00 67 1011.4
20260508130049 47 238 3.0 8.0 0.00 0.00 0.00 72 1011.5
20260508124548 46 200 4.0 8.0 0.00 0.00 0.00 74 1011.6
20260508123048 45 274 2.0 8.0 0.00 0.00 0.00 75 1011.9
20260508121557 45 240 2.0 6.0 0.00 0.00 0.00 78 1012.0
20260508120057 44 0 2.0 6.0 0.00 0.00 0.00 80 1011.9
20260508114550 44 0 1.0 6.0 0.00 0.00 0.00 82 1012.0
20260508113055 43 192 0.0 4.0 0.00 0.00 0.00 83 1011.7
20260508111557 42 0 1.0 3.0 0.00 0.00 0.00 83 1011.6
20260508110058 42 0 2.0 4.0 0.00 0.00 0.00 85 1011.4
20260508104548 41 103 2.0 8.0 0.00 0.00 0.00 86 1011.4
20260508103114 40 109 2.0 4.0 0.00 0.00 0.00 85 1011.4
20260508101605 40 0 0.0 0.0 0.00 0.00 0.00 84 1011.1
20260508100057 40 0 0.0 2.0 0.00 0.00 0.00 83 1010.9
20260508094607 41 132 0.0 2.0 0.00 0.00 0.00 81 1010.8
20260508093053 42 0 0.0 3.0 0.00 0.00 0.00 80 1010.8
20260508091556 42 202 1.0 2.0 0.00 0.00 0.00 78 1010.5
20260508084552 44 0 0.0 3.0 0.00 0.00 0.00 74 1010.6
20260508083111 44 0 0.0 4.0 0.00 0.00 0.00 73 1010.6
20260508081552 45 240 1.0 5.0 0.00 0.00 0.00 71 1010.6
20260508080050 45 247 3.0 10.0 0.00 0.00 0.00 69 1010.5
20260508074552 45 262 2.0 5.0 0.00 0.00 0.00 67 1010.5
20260508073053 46 0 1.0 3.0 0.00 0.00 0.00 64 1010.7
20260508071548 46 278 1.0 3.0 0.00 0.00 0.00 62 1010.7
20260508070055 46 0 1.0 3.0 0.00 0.00 0.00 62 1010.4
20260508064556 46 278 0.0 9.0 0.00 0.02 0.00 59 1010.4
20260508063050 46 282 5.0 13.0 0.00 0.02 0.00 56 1010.7
20260508061555 46 263 3.0 7.0 0.00 0.02 0.00 52 1010.8
20260508060052 46 286 2.0 6.0 0.00 0.02 0.00 53 1010.5
20260508054600 47 269 2.0 4.0 0.00 0.02 0.00 52 1009.9
20260508053055 47 0 0.0 8.0 0.00 0.02 0.00 44 1009.4
20260508051552 47 327 3.0 8.0 0.00 0.02 0.00 43 1009.4
20260508050053 48 0 1.0 4.0 0.00 0.02 0.00 43 1009.5
20260508044549 48 14 2.0 9.0 0.00 0.02 0.00 43 1009.5
20260508043051 48 24 3.0 8.0 0.00 0.02 0.00 44 1009.5
20260508041550 48 360 3.0 9.0 0.00 0.02 0.00 45 1009.4
20260508040052 48 355 2.0 8.0 0.00 0.02 0.00 46 1009.3
20260508034555 47 360 2.0 6.0 0.00 0.02 0.02 46 1009.3
20260508033055 47 84 2.0 6.0 0.00 0.02 0.02 46 1009.4
20260508031548 48 47 2.0 5.0 0.00 0.02 0.02 46 1009.5